Skagway, AK

9:16 AM AKDT on April 24, 2018 (GMT -0800)
Skagway

Weather History for PAGY - August, 2014

Change the Weather History Date:

Sunday, August 17, 2014

  Actual Average Record
Temperature  
Mean Temperature 58 °F -  
Max Temperature 62 °F 61 °F 74 °F (1984)
Min Temperature 55 °F 48 °F 39 °F (1984)
Degree Days  
Heating Degree Days 7    
Growing Degree Days 8 (Base 50)    
Moisture  
Dew Point 51 °F    
Average Humidity 78    
Maximum Humidity 87    
Minimum Humidity 72    
Precipitation  
Precipitation 0.19 in - - ()
Sea Level Pressure  
Sea Level Pressure 29.87 in    
Wind  
Wind Speed 16 mph (SSW)    
Max Wind Speed 25 mph    
Max Gust Speed 39 mph    
Visibility 10 miles    
Events Rain    
Averages and records for this station are not official NWS values.
T = Trace of Precipitation, MM = Missing Value Source: NWS Daily Summary

Daily Weather History Graph

Daily Weather History Graph

Search for Another Location

Airport or City:

Astronomy

Aug. 17, 2014 Rise Set
Actual Time 5:23 AM AKDT 8:45 PM AKDT
Civil Twilight 4:34 AM AKDT 9:34 PM AKDT
Nautical Twilight 3:23 AM AKDT 10:43 PM AKDT
Astronomical Twilight 1:37 AM AKDT 12:32 AM AKDT
Moon 11:18 PM AKDT (8/17) 3:15 PM AKDT (8/17)
Length of Visible Light 17h 00m
Length of Day
15h 22m
Waning Gibbous, 47% of the Moon is Illuminated
Aug 17
Waning Gibbous
Aug 25
New
Sep 2
First Quarter
Sep 8
Full
Sep 15
Last Quarter

Hourly Weather History & Observations

Time (AKDT) Temp. Dew Point Humidity Pressure Visibility Wind Dir Wind Speed Gust Speed Precip Events Conditions
12:53 AM 57.0 °F 48.9 °F 74% 30.00 in 10.0 mi SSW 19.6 mph 29.9 mph N/A   Overcast
1:53 AM 57.0 °F 48.9 °F 74% 30.00 in 10.0 mi SSW 15.0 mph 28.8 mph N/A   Overcast
2:53 AM 57.0 °F 48.9 °F 74% 30.01 in 10.0 mi SSW 11.5 mph - N/A   Overcast
3:53 AM 55.9 °F 48.0 °F 75% 29.98 in 10.0 mi SSW 20.7 mph 28.8 mph N/A   Overcast
4:53 AM 55.9 °F 48.0 °F 75% 29.97 in 10.0 mi SSW 11.5 mph 23.0 mph N/A   Overcast
5:53 AM 55.0 °F 48.9 °F 80% 29.96 in 10.0 mi SSW 11.5 mph 23.0 mph 0.00 in Rain Light Rain
6:53 AM 55.0 °F 50.0 °F 83% 29.94 in 10.0 mi SSW 3.5 mph 17.3 mph 0.01 in Rain Light Rain
7:53 AM 55.0 °F 50.0 °F 83% 29.93 in 10.0 mi SSW 9.2 mph - 0.01 in Rain Light Rain
8:53 AM 55.9 °F 50.0 °F 80% 29.90 in 10.0 mi South 16.1 mph 21.9 mph 0.00 in   Overcast
9:53 AM 55.9 °F 50.0 °F 80% 29.87 in 10.0 mi SSW 20.7 mph 27.6 mph N/A   Overcast
10:53 AM 57.0 °F 50.0 °F 77% 29.87 in 10.0 mi SSW 15.0 mph 26.5 mph 0.00 in Rain Light Rain
11:53 AM 57.0 °F 51.1 °F 81% 29.86 in 8.0 mi South 15.0 mph 24.2 mph 0.04 in Rain Light Rain
12:53 PM 55.9 °F 52.0 °F 87% 29.86 in 5.0 mi South 8.1 mph 19.6 mph 0.06 in Rain Light Rain
2:53 PM 57.9 °F 52.0 °F 81% 29.83 in 10.0 mi SSW 13.8 mph 26.5 mph 0.07 in   Overcast
3:53 PM 57.9 °F 52.0 °F 81% 29.78 in 10.0 mi SSW 20.7 mph 29.9 mph 0.00 in   Overcast
4:53 PM 57.9 °F 52.0 °F 81% 29.76 in 10.0 mi SSW 25.3 mph 39.1 mph 0.00 in   Overcast
5:53 PM 57.9 °F 52.0 °F 81% 29.76 in 10.0 mi SSW 23.0 mph 36.8 mph 0.00 in   Mostly Cloudy
6:53 PM 60.1 °F 52.0 °F 75% 29.75 in 10.0 mi SSW 23.0 mph 32.2 mph N/A   Partly Cloudy
7:53 PM 61.0 °F 52.0 °F 72% 29.77 in 10.0 mi SSW 15.0 mph 25.3 mph N/A   Mostly Cloudy
8:53 PM 60.1 °F 52.0 °F 75% 29.78 in 10.0 mi SSW 18.4 mph 26.5 mph N/A   Overcast
9:53 PM 60.1 °F 52.0 °F 75% 29.80 in 10.0 mi SSW 21.9 mph 29.9 mph N/A   Overcast
10:53 PM 60.1 °F 51.1 °F 72% 29.81 in 10.0 mi SSW 21.9 mph 33.4 mph N/A   Overcast
11:53 PM 57.9 °F 52.0 °F 81% 29.81 in 10.0 mi SSW 25.3 mph 34.5 mph 0.00 in   Overcast